Probability
13 35 65 68 71 74 68 65 61 55 55 55 55 52 52 55 52 52 48 48 42 45 48 52 48 45 48 45 42 48 55 58 65 58 58 65 65 68 71 68 55 42 65
13 39 68 68 68 68 65 61 61 55 52 55 55 55 48 48 52 48 48 45 45 42 42 39 52 48 52 45 52 58 52 52 52 58 58 52 58 65 74 71 65 39 65
13 39 55 68 71 68 74 61 61 61 58 55 55 61 58 52 52 45 42 48 42 45 42 35 48 42 48 55 55 55 48 52 48 45 58 29 39 61 65 65 68 65 65
16 19 42 68 71 71 71 68 71 65 65 55 52 55 58 48 45 45 42 42 39 32 35 39 39 42 39 42 42 42 35 48 45 39 13 13 13 45 68 68 68 65 65
6 10 35 71 71 65 68 74 65 65 61 52 58 52 52 45 45 45 39 42 35 35 29 32 35 39 42 39 42 39 45 45 39 23 6 6 3 39 55 55 58 61 65
6 6 39 68 68 68 74 71 65 61 65 58 48 48 52 42 35 42 39 39 35 32 35 39 45 39 48 42 39 42 39 39 26 6 3 3 6 32 39 42 42 52 58
6 13 32 65 65 55 55 52 55 52 52 55 52 48 52 45 35 39 32 35 32 45 35 42 48 45 48 48 45 45 39 35 19 3 3 3 3 29 32 48 42 45 55
10 23 32 58 58 52 52 52 48 48 52 48 52 48 42 42 39 45 39 42 35 45 45 42 45 45 52 55 52 48 39 32 16 6 3 3 10 23 29 39 45 45 55
10 13 23 29 42 52 58 52 48 48 48 42 42 45 48 45 39 45 48 39 45 48 45 45 45 45 45 48 48 55 48 35 23 6 3 3 16 32 35 42 45 48 48
6 10 13 16 19 26 26 48 45 45 45 48 42 45 45 35 35 39 45 55 48 42 48 48 45 52 48 48 55 55 52 35 13 10 3 3 35 35 39 42 48 52 52
3 3 6 6 10 13 13 29 39 39 42 32 32 42 32 19 16 26 32 45 48 61 61 58 48 48 52 45 55 52 42 19 16 10 10 23 35 23 35 45 48 45 48
3 3 0 0 0 6 6 10 16 19 13 13 6 6 13 10 6 16 29 52 52 58 55 61 61 45 35 16 16 32 23 13 10 10 10 26 39 32 32 39 48 42 48
0 0 0 0 0 3 3 6 3 3 6 3 3 3 6 3 3 10 10 19 26 29 13 23 26 19 6 10 10 10 10 13 6 13 13 35 39 35 32 35 45 52 58
0 3 0 0 0 3 6 13 6 3 3 3 3 0 0 0 3 6 10 6 3 6 3 6 6 6 3 3 13 13 10 6 6 10 13 32 39 35 29 35 42 42 55
6 3 6 3 3 6 6 6 3 6 6 6 3 3 3 3 3 3 3 3 3 3 3 6 3 6 6 3 10 6 3 3 6 10 6 32 42 42 32 35 32 32 39
6 6 3 6 0 6 6 3 3 0 3 6 3 6 3 3 3 6 3 3 6 3 3 3 0 3 0 3 6 6 0 0 3 6 6 16 32 39 35 39 35 35 35
0 6 6 13 10 13 13 16 13 10 6 6 3 6 10 6 6 13 6 3 3 6 6 6 3 3 3 0 3 3 3 3 3 6 6 6 16 35 39 39 32 32 35
3 3 10 13 13 13 16 16 16 10 13 13 10 13 16 13 16 10 10 10 13 13 10 3 3 3 0 0 3 0 0 3 3 6 6 6 6 6 26 35 35 39 39
3 0 0 10 13 13 10 13 13 13 13 13 13 13 13 13 16 13 10 13 10 6 10 13 6 3 0 3 3 0 0 6 6 6 6 6 6 6 6 23 35 39 42
3 0 6 10 13 16 16 10 10 13 16 16 13 13 10 13 16 16 16 16 13 3 6 6 13 10 3 6 10 10 6 6 6 6 6 6 3 3 10 13 16 29 39
10 13 13 13 10 13 13 10 10 6 10 13 13 10 13 13 19 10 13 13 10 10 6 10 16 16 10 6 6 6 6 6 6 6 6 6 6 6 10 3 6 10 16
16 13 16 19 13 19 16 10 10 16 13 16 13 13 13 16 13 19 10 13 13 13 10 13 13 13 10 10 13 6 3 3 3 10 6 6 6 10 13 6 6 6 3
16 19 26 23 23 29 23 19 23 13 16 13 16 10 10 13 13 13 10 6 6 10 13 16 13 13 13 10 6 3 3 3 6 3 10 10 10 10 10 10 10 13 10
29 26 26 26 29 29 26 23 19 16 16 16 16 16 13 13 13 13 6 6 10 10 13 16 10 13 13 13 10 6 3 3 3 3 3 3 6 10 10 10 10 10 13
32 26 29 19 19 19 19 23 23 19 16 13 13 16 16 16 16 19 6 6 6 6 10 13 10 10 13 19 16 16 13 3 3 3 0 0 3 3 3 3 10 10 10
23 29 35 23 16 10 16 16 16 16 16 19 19 19 13 13 13 16 16 10 10 10 10 10 13 10 10 13 13 13 16 10 3 3 0 0 0 0 0 0 3 10 10
Height
5877 5875 5874 5872 5871 5870 5870 5871 5871 5870 5871 5871 5872 5872 5872 5872 5873 5874 5874 5875 5875 5876 5876 5876 5876 5877 5877 5877 5877 5878 5878 5878 5878 5878 5878 5878 5879 5879 5879 5879 5879 5880 5880
5877 5875 5873 5872 5870 5868 5869 5869 5870 5870 5870 5870 5871 5871 5871 5871 5872 5872 5873 5873 5874 5875 5875 5875 5875 5875 5875 5876 5876 5876 5876 5876 5876 5876 5876 5876 5877 5877 5878 5878 5878 5879 5879
5877 5875 5874 5871 5868 5866 5867 5869 5870 5870 5870 5869 5869 5869 5870 5870 5871 5871 5872 5872 5873 5873 5874 5874 5874 5874 5874 5874 5874 5874 5874 5874 5874 5874 5874 5875 5875 5875 5876 5877 5877 5877 5878
5877 5875 5874 5871 5869 5867 5868 5869 5869 5869 5869 5868 5868 5868 5869 5869 5870 5870 5870 5871 5872 5872 5872 5872 5873 5873 5873 5872 5872 5872 5872 5872 5872 5872 5872 5872 5873 5874 5874 5875 5875 5876 5876
5877 5876 5874 5872 5870 5869 5869 5869 5869 5869 5868 5867 5867 5867 5868 5868 5869 5869 5870 5870 5871 5871 5871 5871 5871 5871 5871 5871 5870 5870 5870 5870 5870 5869 5869 5870 5870 5871 5872 5873 5874 5874 5875
5877 5876 5874 5873 5872 5871 5870 5869 5869 5868 5868 5866 5865 5865 5866 5868 5868 5869 5869 5870 5870 5870 5870 5870 5870 5870 5869 5869 5869 5868 5868 5868 5867 5867 5866 5867 5868 5869 5870 5871 5872 5872 5873
5878 5876 5874 5873 5872 5871 5870 5869 5869 5868 5867 5866 5865 5865 5866 5867 5868 5868 5869 5869 5869 5868 5868 5869 5868 5868 5868 5867 5867 5866 5866 5865 5864 5864 5863 5864 5865 5866 5868 5869 5870 5871 5871
5879 5876 5875 5874 5872 5871 5870 5869 5869 5868 5868 5867 5866 5866 5867 5867 5868 5868 5868 5868 5867 5867 5867 5867 5867 5867 5866 5865 5865 5865 5864 5863 5862 5862 5861 5862 5863 5864 5866 5867 5868 5869 5869
5879 5877 5875 5874 5873 5871 5870 5870 5869 5868 5868 5868 5867 5867 5867 5867 5867 5867 5868 5867 5867 5866 5866 5866 5866 5865 5864 5863 5863 5863 5862 5862 5861 5860 5860 5860 5861 5863 5864 5866 5866 5867 5867
5880 5878 5876 5874 5873 5872 5870 5869 5869 5869 5868 5868 5868 5867 5867 5867 5867 5867 5867 5867 5866 5865 5865 5865 5864 5864 5863 5862 5861 5861 5861 5861 5860 5860 5859 5860 5860 5861 5863 5864 5864 5865 5865
5881 5879 5877 5875 5874 5872 5870 5870 5869 5869 5868 5868 5868 5868 5867 5867 5867 5867 5866 5866 5865 5864 5864 5864 5863 5862 5862 5861 5860 5860 5860 5860 5860 5859 5859 5859 5860 5861 5861 5862 5863 5863 5864
5883 5880 5878 5876 5874 5873 5872 5870 5869 5869 5869 5869 5868 5868 5868 5867 5867 5867 5866 5865 5864 5864 5863 5862 5862 5861 5861 5860 5859 5859 5859 5858 5858 5858 5858 5858 5859 5859 5860 5861 5861 5861 5862
5883 5881 5879 5876 5875 5874 5873 5871 5871 5870 5870 5870 5869 5869 5868 5868 5868 5867 5866 5865 5864 5864 5863 5862 5861 5860 5859 5858 5858 5857 5857 5857 5857 5857 5858 5858 5858 5858 5858 5859 5859 5859 5859
5885 5882 5880 5878 5876 5875 5873 5872 5872 5871 5871 5871 5870 5869 5869 5868 5868 5867 5866 5865 5864 5863 5862 5861 5861 5860 5859 5857 5857 5856 5856 5856 5856 5856 5856 5856 5856 5856 5856 5856 5856 5857 5857
5886 5884 5882 5879 5878 5876 5874 5873 5873 5872 5872 5871 5871 5870 5869 5869 5868 5867 5866 5865 5864 5863 5863 5862 5860 5859 5858 5857 5856 5856 5855 5855 5855 5855 5854 5854 5854 5854 5854 5854 5854 5854 5854
5887 5885 5883 5881 5879 5877 5876 5874 5874 5874 5873 5872 5871 5870 5870 5869 5868 5867 5866 5865 5864 5864 5863 5862 5860 5859 5858 5857 5856 5855 5854 5854 5854 5854 5853 5852 5852 5852 5851 5851 5851 5851 5851
5888 5886 5885 5883 5880 5879 5877 5876 5875 5875 5874 5873 5872 5871 5870 5869 5869 5868 5867 5866 5865 5864 5863 5862 5861 5859 5858 5857 5856 5855 5854 5853 5853 5852 5851 5850 5849 5849 5849 5848 5848 5848 5848
5889 5888 5886 5884 5882 5881 5879 5877 5876 5876 5875 5874 5873 5872 5871 5870 5869 5868 5867 5866 5865 5863 5862 5861 5860 5859 5858 5857 5856 5855 5853 5852 5851 5850 5849 5848 5847 5847 5846 5846 5846 5845 5845
5891 5889 5887 5886 5884 5882 5881 5879 5878 5877 5876 5875 5874 5873 5871 5870 5869 5868 5867 5866 5864 5863 5862 5861 5860 5859 5857 5856 5855 5853 5852 5850 5850 5848 5847 5846 5845 5844 5843 5843 5843 5843 5842
5892 5891 5889 5887 5885 5884 5882 5880 5879 5878 5877 5875 5874 5873 5871 5870 5869 5868 5866 5865 5864 5863 5861 5860 5859 5858 5857 5855 5854 5852 5850 5849 5848 5847 5845 5844 5842 5841 5841 5840 5840 5840 5839
5893 5892 5890 5888 5886 5885 5883 5881 5880 5878 5877 5875 5874 5873 5871 5870 5869 5867 5865 5864 5863 5862 5860 5859 5858 5857 5856 5854 5853 5851 5849 5848 5846 5845 5843 5842 5840 5839 5838 5838 5837 5837 5836
5893 5892 5890 5889 5887 5885 5884 5882 5880 5879 5877 5876 5875 5873 5871 5870 5868 5866 5865 5863 5862 5861 5859 5858 5856 5855 5853 5852 5851 5849 5847 5846 5844 5843 5841 5840 5838 5837 5836 5836 5835 5834 5833
5892 5891 5890 5889 5887 5886 5884 5882 5880 5879 5877 5876 5874 5872 5870 5869 5867 5866 5864 5862 5861 5859 5857 5856 5854 5853 5851 5850 5848 5847 5845 5843 5842 5841 5839 5837 5836 5834 5833 5832 5832 5831 5830
5891 5890 5889 5888 5887 5885 5884 5882 5880 5878 5877 5875 5873 5871 5870 5868 5866 5864 5863 5861 5859 5857 5855 5853 5852 5850 5849 5847 5845 5844 5842 5841 5839 5837 5836 5834 5833 5832 5830 5829 5828 5827 5826
5890 5889 5888 5887 5885 5884 5883 5881 5879 5877 5875 5874 5872 5870 5868 5866 5864 5863 5861 5859 5857 5855 5853 5851 5849 5847 5845 5844 5842 5840 5838 5837 5836 5834 5832 5831 5829 5828 5827 5825 5824 5823 5822
5889 5888 5887 5886 5884 5882 5881 5879 5878 5876 5874 5872 5870 5868 5867 5865 5862 5860 5858 5856 5854 5852 5850 5848 5846 5844 5842 5840 5838 5836 5835 5833 5831 5830 5828 5827 5825 5824 5823 5822 5820 5819 5817
Wind_Speed
9 9 8 7 7 5 3 3 2 2 2 2 3 3 4 5 5 6 6 6 7 7 7 7 8 8 8 7 8 8 8 9 9 9 9 9 9 9 9 8 8 8 9
9 9 9 8 7 5 3 2 2 2 2 2 3 3 4 5 5 6 6 6 7 7 8 8 8 8 8 8 7 8 9 9 9 9 9 9 10 9 9 8 8 9 9
9 9 9 9 7 5 2 2 2 1 2 2 3 3 3 4 5 5 5 6 7 7 8 8 8 8 8 9 9 9 9 9 9 9 9 9 10 10 10 9 9 9 10
10 10 10 9 7 5 3 2 2 2 2 2 2 3 3 3 4 5 5 6 6 7 8 8 7 8 9 9 10 10 9 9 9 9 9 10 10 11 10 10 9 10 10
11 10 10 9 8 6 4 2 2 2 3 3 3 3 3 3 4 4 5 5 6 6 7 8 7 8 9 9 9 10 9 9 9 10 10 10 11 11 11 10 10 10 10
11 10 10 9 8 7 4 3 3 3 3 3 2 2 2 3 3 3 4 5 6 6 7 8 8 8 9 8 9 9 9 10 10 10 10 11 11 11 11 11 10 9 10
11 10 10 9 9 7 5 4 3 3 3 2 1 1 1 1 2 3 4 4 5 6 7 7 7 8 8 9 9 9 9 9 10 9 9 10 11 10 10 10 10 10 10
12 11 11 11 10 8 6 4 4 3 3 3 2 1 1 1 1 2 3 4 4 5 6 6 7 7 7 8 8 9 8 8 8 8 9 9 10 10 10 10 10 10 10
12 11 10 10 9 8 7 5 4 3 2 2 2 1 1 1 1 1 2 3 3 4 5 6 6 7 7 7 7 8 7 7 7 8 8 9 9 9 10 10 10 10 9
12 11 11 10 9 8 6 4 4 3 2 2 2 2 2 1 1 1 2 2 2 3 4 5 6 6 6 5 6 7 6 7 7 6 7 8 8 8 9 9 10 10 10
11 11 11 10 10 9 7 6 5 3 2 2 3 3 2 2 2 1 1 2 3 4 4 4 4 5 5 5 6 6 6 6 6 5 6 8 8 8 8 9 10 10 10
11 12 12 11 10 9 8 7 6 5 4 4 3 4 3 3 3 2 2 2 3 3 3 3 3 4 5 5 6 6 7 6 5 5 6 7 8 8 8 9 9 10 11
13 12 12 12 11 10 9 8 7 6 5 4 4 4 4 3 3 3 3 3 3 3 2 3 3 4 4 4 4 5 6 6 4 5 6 6 7 8 8 9 9 10 11
13 13 11 11 11 11 9 8 8 8 7 6 5 4 4 4 4 4 4 4 3 4 4 3 4 4 4 3 3 4 5 5 4 5 6 6 7 8 9 9 10 11 11
13 13 12 12 12 11 9 9 9 9 8 7 7 6 5 6 5 6 6 6 6 6 5 5 5 4 3 2 2 2 3 5 5 5 5 6 7 8 9 10 11 11 11
13 13 13 12 13 12 11 10 9 9 8 7 7 6 6 6 6 6 6 6 6 6 6 6 5 5 4 3 3 2 2 3 3 4 5 6 7 8 9 10 11 12 12
12 12 12 12 12 12 11 10 9 9 8 8 8 7 7 6 6 6 6 6 6 6 6 6 6 5 5 5 4 4 4 4 4 5 6 6 6 7 8 8 10 12 12
12 12 11 11 11 10 10 10 9 9 9 9 8 7 7 7 6 6 6 6 7 6 6 6 6 5 5 5 5 5 5 4 4 5 6 6 7 7 7 8 9 11 12
11 11 11 11 10 9 9 9 8 8 8 8 8 8 7 7 6 6 6 7 7 6 5 5 6 6 6 6 7 7 6 6 6 6 7 7 7 8 7 8 8 9 10
9 10 10 10 10 9 8 8 8 8 8 8 8 7 7 7 7 7 7 7 6 6 6 6 6 6 6 6 8 8 8 8 8 8 9 8 8 8 8 8 9 10 10
8 9 9 9 9 9 8 7 7 8 8 8 7 7 7 8 8 8 8 8 7 7 7 7 7 7 7 7 8 9 9 9 10 10 9 9 8 8 8 8 9 10 10
7 8 9 8 8 8 8 8 8 7 8 8 8 8 8 8 8 8 8 9 9 9 9 9 9 8 8 9 10 10 10 11 11 11 10 10 9 8 8 9 10 10 11
6 7 8 8 8 9 9 9 9 9 9 8 9 9 9 9 9 9 9 10 10 10 10 10 10 9 10 11 11 12 12 12 11 11 11 10 10 9 10 10 11 11 11
6 7 7 8 8 9 9 10 10 10 10 9 9 9 10 10 10 10 10 11 11 11 11 11 11 11 12 12 12 12 13 13 14 13 12 12 12 12 13 12 12 13 13
6 6 7 7 8 9 9 10 10 10 10 10 10 10 10 11 11 11 12 12 12 13 13 13 12 13 13 13 13 14 14 14 14 15 15 14 13 13 13 14 14 15 15
7 7 7 7 8 9 9 10 10 11 11 11 11 11 11 11 12 12 13 13 13 14 14 14 14 14 14 14 14 15 16 16 16 16 16 16 16 16 15 15 16 16 16
Wind_Direction
20 19 14 9 8 4 3 356 344 330 314 278 253 247 237 241 244 234 232 231 231 232 236 241 244 246 247 249 246 247 250 259 260 256 248 244 242 239 239 236 229 224 223
18 19 14 5 358 347 335 345 345 340 335 299 266 258 247 236 236 234 232 231 231 235 238 243 247 245 248 250 254 256 253 257 256 253 249 244 241 238 237 232 227 226 228
18 17 16 14 9 8 5 14 2 342 332 310 288 269 258 248 238 229 231 233 235 237 237 241 247 249 254 255 256 257 257 256 252 247 244 244 241 238 236 231 230 228 229
22 20 19 23 26 35 44 36 8 346 332 316 299 289 277 261 253 236 236 240 240 240 237 242 249 251 257 260 259 256 255 255 252 249 247 247 244 241 234 233 233 231 231
27 23 21 26 36 41 45 32 3 344 334 324 303 280 270 253 253 248 246 247 246 246 246 248 256 255 259 261 263 261 258 256 250 250 251 248 245 240 233 232 229 228 230
28 25 26 29 34 36 41 40 14 348 346 342 325 289 246 244 245 246 249 250 251 249 247 251 259 259 265 270 268 264 260 257 252 252 249 246 243 238 232 232 227 227 230
31 28 31 34 34 32 31 32 14 3 6 10 24 135 193 248 239 242 242 253 254 251 251 251 253 261 268 276 276 267 268 264 258 250 242 241 238 232 226 230 228 230 231
36 34 34 36 34 34 35 34 34 28 23 21 29 64 19 300 245 236 245 260 260 253 252 252 255 266 274 278 277 274 271 264 256 245 238 238 234 231 231 234 228 231 231
35 37 36 33 34 35 31 28 30 37 33 32 25 22 9 317 275 268 269 268 270 262 259 258 261 270 279 282 280 275 263 261 257 243 245 240 232 229 228 230 230 230 232
37 38 37 34 32 30 28 31 32 43 66 61 41 38 34 33 340 288 293 282 284 278 273 274 272 281 285 289 283 275 259 259 247 249 247 235 227 227 230 233 233 235 235
38 38 36 37 39 40 42 45 39 54 80 75 66 60 59 58 38 3 324 312 313 301 285 279 280 283 286 290 280 278 266 255 241 244 247 239 228 229 228 234 234 235 237
38 40 39 38 39 44 45 47 51 55 59 55 63 65 64 68 49 21 358 338 334 321 298 294 296 291 288 288 278 270 262 260 250 246 245 238 231 230 232 239 238 240 240
34 35 38 41 38 39 42 46 49 48 47 50 54 51 45 56 46 28 24 12 3 354 340 322 320 307 294 290 284 268 261 259 269 248 245 239 234 232 237 243 246 248 245
34 33 36 39 37 36 43 52 54 53 59 62 56 52 49 45 48 44 35 36 35 31 20 351 337 337 314 292 297 274 261 263 285 270 267 246 244 239 240 243 251 252 251
35 36 40 42 41 39 43 50 54 57 56 56 54 56 53 56 52 47 44 44 43 36 30 15 0 355 357 335 311 305 267 268 268 272 270 262 247 241 249 253 254 256 254
36 38 37 42 41 42 45 52 56 54 50 47 51 54 57 54 51 48 42 34 33 29 21 16 11 10 10 14 357 343 340 299 287 279 277 274 257 252 258 257 256 255 252
40 41 40 44 40 41 44 49 53 50 47 46 51 52 46 44 42 40 36 31 24 20 14 11 10 9 8 8 1 349 331 329 309 287 286 284 273 265 265 264 260 253 250
38 40 38 40 39 38 40 43 48 46 43 45 45 43 37 38 33 33 29 21 19 18 17 15 10 4 352 349 349 337 332 336 325 312 302 291 280 276 275 269 266 263 253
31 33 35 34 35 36 36 37 38 36 37 37 35 35 32 28 19 18 19 15 12 15 14 7 5 357 346 339 335 331 329 326 317 310 306 299 287 281 277 272 272 269 265
26 28 30 29 30 32 33 33 32 28 26 23 22 26 26 21 17 16 10 10 13 9 1 354 344 340 337 336 334 328 323 322 317 310 305 297 288 283 279 275 272 267 268
22 23 23 25 25 24 27 29 28 24 21 15 14 15 16 15 13 9 6 7 6 359 350 342 336 333 330 327 327 324 321 317 315 310 306 300 290 284 279 272 271 270 268
13 14 15 17 17 15 15 15 15 15 13 11 8 3 3 4 6 8 6 360 353 345 341 338 334 327 322 317 316 316 315 313 309 307 306 298 287 282 279 279 277 273 267
356 358 2 3 6 8 9 9 10 8 5 4 358 355 356 359 1 1 357 350 345 341 337 333 330 325 321 315 313 311 311 309 305 304 303 296 289 284 279 275 274 272 269
344 350 350 349 353 359 2 0 358 354 350 347 347 350 353 352 352 349 345 341 339 336 334 332 328 322 319 316 312 310 310 307 304 302 298 292 287 282 278 276 272 268 267
337 343 342 339 342 345 348 351 349 347 344 341 340 338 338 337 337 337 337 337 334 331 329 327 324 321 317 314 312 310 306 302 300 298 297 292 287 282 278 276 273 271 272
329 336 334 331 333 334 338 342 343 340 337 335 334 331 328 327 328 329 331 331 330 328 324 321 319 317 314 311 310 308 305 299 298 297 295 290 286 283 279 276 275 274 276